GW2652 Weather Reports


Display with metric or nautical units.
time (UTC)temp
F
wind
direction
speed
MPH
gust
MPH
rain 1hr
in
rain 24hr
in
rain mn
in
humidity
%
barometer
mb
20260906100953 57 183 0.0 0.0 0.00 0.00 0.00 99 1014.2
20260906100448 57 193 0.0 0.0 0.00 0.00 0.00 99 1014.0
20260906095942 57 189 0.0 0.0 0.00 0.00 0.00 99 1013.9
20260906095437 57 203 0.0 0.0 0.00 0.00 0.00 99 1014.0
20260906094932 57 176 0.0 0.0 0.00 0.00 0.00 99 1013.7
20260906094426 56 176 0.0 0.0 0.00 0.00 0.00 99 1013.7
20260906093922 56 176 0.0 0.0 0.00 0.00 0.00 99 1013.6
20260906093418 55 176 0.0 0.0 0.00 0.00 0.00 99 1013.8
20260906092913 55 176 0.0 0.0 0.00 0.00 0.00 99 1013.5
20260906092413 55 176 0.0 0.0 0.00 0.00 0.00 99 1013.5
20260906091908 55 176 0.0 0.0 0.00 0.00 0.00 99 1013.6
20260906091404 55 176 0.0 0.0 0.00 0.00 0.00 99 1013.6
20260906090901 55 176 0.0 0.0 0.00 0.00 0.00 99 1013.2
20260906090400 55 176 0.0 0.0 0.00 0.00 0.00 99 1013.3
20260906085854 55 183 0.0 0.0 0.00 0.00 0.00 99 1013.2
20260906085348 55 185 0.0 0.0 0.00 0.00 0.00 99 1013.1
20260906084843 55 185 0.0 0.0 0.00 0.00 0.00 99 1013.3
20260906084343 54 185 0.0 0.0 0.00 0.00 0.00 99 1013.2
20260906083837 54 185 0.0 0.0 0.00 0.00 0.00 99 1013.1
20260906083332 54 185 0.0 0.0 0.00 0.00 0.00 99 1013.0
20260906082826 54 185 0.0 0.0 0.00 0.00 0.00 99 1012.9
20260906082322 54 185 0.0 0.0 0.00 0.00 0.00 99 1012.8
20260906081818 54 185 0.0 0.0 0.00 0.00 0.00 99 1013.0
20260906081313 54 185 0.0 0.0 0.00 0.00 0.00 99 1012.7
20260906080809 54 185 0.0 0.0 0.00 0.00 0.00 99 1012.8
20260906080305 54 185 0.0 0.0 0.00 0.00 0.00 99 1012.7
20260906075805 54 185 0.0 0.0 0.00 0.00 0.00 99 1012.7
20260906075306 54 185 0.0 0.0 0.00 0.00 0.00 99 1012.5
20260906074800 54 185 0.0 0.0 0.00 0.00 0.00 99 1013.0
20260906074259 54 185 0.0 0.0 0.00 0.00 0.00 99 1013.1
20260906073759 54 185 0.0 0.0 0.00 0.00 0.00 99 1013.1
20260906073253 54 185 0.0 0.0 0.00 0.00 0.00 99 1012.8
20260906072749 54 185 0.0 0.0 0.00 0.00 0.00 99 1013.0
20260906072245 54 185 0.0 0.0 0.00 0.00 0.00 99 1012.9
20260906071741 54 185 0.0 0.0 0.00 0.00 0.00 99 1013.1
20260906071241 54 185 0.0 0.0 0.00 0.00 0.00 99 1012.8
20260906070737 54 185 0.0 0.0 0.00 0.00 0.00 99 1012.8
20260906070233 54 185 0.0 0.0 0.00 0.00 0.00 99 1012.6
20260906065732 55 185 0.0 0.0 0.00 0.00 0.00 99 1012.7
20260906065228 55 185 0.0 0.0 0.00 0.00 0.00 99 1012.5
20260906064723 55 185 0.0 0.0 0.00 0.00 0.00 99 1012.7
20260906064219 55 185 0.0 0.0 0.00 0.00 0.00 99 1012.8
20260906063714 55 185 0.0 0.0 0.00 0.00 0.00 99 1013.1
20260906063209 56 185 0.0 0.0 0.00 0.00 0.00 99 1012.9
20260906062705 56 185 0.0 0.0 0.00 0.00 0.00 99 1012.8
20260906062204 56 187 0.0 0.0 0.00 0.00 0.00 99 1012.8
20260906061700 56 187 0.0 0.0 0.00 0.00 0.00 99 1012.7
20260906061155 56 187 0.0 0.0 0.00 0.00 0.00 99 1012.7
20260906060651 56 187 0.0 0.0 0.00 0.00 0.00 99 1012.7
20260906060148 56 187 0.0 0.0 0.00 0.00 0.00 99 1012.8
20260906055644 56 187 0.0 0.0 0.00 0.00 0.00 99 1012.9
20260906055138 56 193 0.0 0.0 0.00 0.00 0.00 99 1013.0
20260906054634 56 202 0.0 0.0 0.00 0.00 0.00 99 1013.1
20260906054129 57 202 0.0 0.0 0.00 0.00 0.00 99 1012.8
20260906053625 57 202 0.0 0.0 0.00 0.00 0.00 99 1012.8
20260906053120 56 178 1.0 1.0 0.00 0.00 0.00 99 1013.0
20260906052616 57 175 0.0 0.0 0.00 0.00 0.00 99 1012.8
20260906052112 57 175 0.0 0.0 0.00 0.00 0.00 99 1013.0
20260906051608 57 175 0.0 0.0 0.00 0.00 0.00 99 1013.1
20260906051103 57 175 0.0 0.0 0.00 0.00 0.00 99 1013.3
20260906050558 58 175 0.0 0.0 0.00 0.00 0.00 99 1012.9
20260906050054 58 175 0.0 0.0 0.00 0.00 0.00 99 1012.9
20260906045551 58 175 0.0 0.0 0.00 0.00 0.00 99 1012.9
20260906045047 58 175 0.0 0.0 0.00 0.00 0.00 99 1012.9
20260906044543 58 187 0.0 0.0 0.00 0.00 0.00 99 1013.2
20260906044038 58 187 0.0 0.0 0.00 0.00 0.00 99 1012.8
20260906043533 58 187 0.0 0.0 0.00 0.00 0.00 99 1013.2
20260906043030 59 187 0.0 0.0 0.00 0.00 0.00 99 1013.2
20260906042528 59 187 0.0 0.0 0.00 0.00 0.00 99 1013.1
20260906042023 59 187 0.0 0.0 0.00 0.00 0.00 99 1012.9
20260906041519 58 187 0.0 0.0 0.00 0.00 0.00 99 1013.1
20260906041014 59 187 0.0 0.0 0.00 0.00 0.00 99 1013.2
20260906040509 59 187 0.0 0.0 0.00 0.00 0.00 99 1013.1
20260906040004 59 187 0.0 0.0 0.00 0.05 0.05 99 1013.0
20260906035459 59 187 0.0 0.0 0.00 0.05 0.05 99 1013.2
20260906034955 59 187 0.0 0.0 0.00 0.05 0.05 99 1013.0
20260906034454 59 187 0.0 0.0 0.00 0.05 0.05 99 1012.8
20260906033950 59 187 0.0 0.0 0.00 0.05 0.05 99 1013.0
20260906033444 59 187 0.0 0.0 0.00 0.05 0.05 99 1012.8
20260906032940 59 187 0.0 0.0 0.00 0.05 0.05 99 1012.7
20260906032436 59 187 0.0 0.0 0.00 0.05 0.05 99 1012.9
20260906031931 60 187 0.0 0.0 0.00 0.05 0.05 99 1012.7
20260906031426 60 187 0.0 0.0 0.00 0.05 0.05 99 1012.8
20260906030921 60 187 0.0 0.0 0.00 0.05 0.05 99 1012.9
20260906030416 60 187 0.0 0.0 0.00 0.05 0.05 99 1012.9
20260906025910 61 187 0.0 0.0 0.00 0.05 0.05 99 1012.8
20260906025405 61 187 0.0 0.0 0.00 0.05 0.05 99 1012.7
20260906024904 61 187 0.0 0.0 0.00 0.05 0.05 99 1012.8
20260906024403 61 187 0.0 0.0 0.00 0.05 0.05 99 1012.9
20260906023858 61 187 0.0 0.0 0.07 0.05 0.05 99 1013.1
20260906023354 61 187 0.0 0.0 0.07 0.05 0.05 99 1012.9
20260906022849 61 187 0.0 0.0 0.24 0.05 0.05 99 1012.8
20260906022344 61 187 0.0 0.0 0.17 0.04 0.04 99 1012.7
20260906021840 61 187 0.0 0.0 0.07 0.01 0.01 99 1012.7
20260906021339 61 187 1.0 1.0 0.07 0.01 0.01 99 1012.7
20260906020834 61 187 0.0 0.0 0.00 0.00 0.00 99 1012.8
20260906020333 61 188 0.0 0.0 0.00 0.00 0.00 99 1012.8
20260906015828 61 188 0.0 0.0 0.00 0.00 0.00 99 1012.6
20260906015327 61 188 0.0 0.0 0.00 0.00 0.00 99 1012.6
20260906014827 61 188 0.0 0.0 0.00 0.00 0.00 99 1012.6
20260906014322 61 188 0.0 0.0 0.00 0.00 0.00 99 1012.6
20260906013818 60 188 0.0 0.0 0.00 0.00 0.00 99 1012.3
20260906013313 60 188 0.0 0.0 0.00 0.00 0.00 99 1012.6
20260906012809 60 188 0.0 0.0 0.00 0.00 0.00 99 1012.5
20260906012309 60 188 0.0 0.0 0.00 0.00 0.00 99 1012.2
20260906011804 60 188 0.0 0.0 0.00 0.00 0.00 99 1012.6
20260906011258 60 188 0.0 0.0 0.00 0.00 0.00 99 1012.6
20260906010754 60 188 0.0 0.0 0.00 0.00 0.00 99 1012.6
20260906010250 60 188 0.0 0.0 0.00 0.00 0.00 99 1012.5
20260906005745 60 188 0.0 0.0 0.00 0.00 0.00 99 1012.4
20260906005244 60 188 0.0 0.0 0.00 0.00 0.00 99 1012.3
20260906004743 60 187 0.0 0.0 0.00 0.00 0.00 99 1012.2
20260906004238 61 188 0.0 0.0 0.00 0.00 0.00 99 1012.3
20260906003733 61 187 0.0 0.0 0.00 0.00 0.00 99 1012.3
20260906003228 61 188 0.0 0.0 0.00 0.00 0.00 99 1012.2
20260906002723 61 188 0.0 0.0 0.00 0.00 0.00 99 1012.4
20260906002218 62 188 0.0 0.0 0.00 0.00 0.00 98 1012.3
20260906001714 62 188 0.0 0.0 0.00 0.00 0.00 97 1011.8
20260906001214 62 188 0.0 0.0 0.00 0.00 0.00 97 1012.2
20260906000709 62 188 0.0 0.0 0.00 0.00 0.00 97 1012.0
20260906000204 62 188 0.0 0.0 0.00 0.00 0.00 97 1012.1
20260905235703 62 188 0.0 0.0 0.00 0.00 0.00 96 1012.2
20260905235158 62 188 0.0 0.0 0.00 0.00 0.00 95 1012.0
20260905234654 63 188 0.0 0.0 0.00 0.00 0.00 95 1011.9
20260905234149 63 188 0.0 0.0 0.00 0.00 0.00 94 1012.0
20260905233644 64 188 0.0 0.0 0.00 0.00 0.00 94 1011.9
20260905233143 64 188 0.0 0.0 0.00 0.00 0.00 93 1012.1
20260905232638 65 188 0.0 0.0 0.00 0.00 0.00 91 1011.9
20260905232134 66 189 0.0 0.0 0.00 0.00 0.00 91 1012.0
20260905231629 66 189 0.0 0.0 0.00 0.00 0.00 90 1012.0
20260905231126 66 189 0.0 0.0 0.00 0.00 0.00 88 1011.9
20260905230621 67 189 0.0 0.0 0.00 0.00 0.00 86 1011.8
20260905230118 68 201 0.0 0.0 0.00 0.00 0.00 83 1011.9
20260905225613 68 205 1.0 2.0 0.00 0.00 0.00 83 1011.9
20260905225108 68 197 0.0 0.0 0.00 0.00 0.00 83 1011.9
20260905224608 69 198 1.0 1.0 0.00 0.00 0.00 82 1011.9
20260905224107 69 198 1.0 1.0 0.00 0.00 0.00 81 1012.0
20260905223604 69 318 3.0 4.0 0.00 0.00 0.00 79 1011.9
20260905223101 70 226 2.0 3.0 0.00 0.00 0.00 78 1011.5
20260905222600 70 284 6.0 7.0 0.00 0.00 0.00 78 1011.8
20260905222056 71 190 1.0 1.0 0.00 0.00 0.00 79 1011.5
20260905221552 71 223 2.0 2.0 0.00 0.00 0.00 75 1011.7
20260905221048 72 172 2.0 3.0 0.00 0.00 0.00 76 1011.7
20260905220543 71 7 3.0 4.0 0.00 0.00 0.00 76 1011.4
20260905220039 70 201 1.0 2.0 0.00 0.00 0.00 77 1011.5
20260905215538 70 180 1.0 1.0 0.00 0.00 0.00 77 1011.4
20260905215035 71 315 1.0 1.0 0.00 0.00 0.00 77 1011.3
20260905214531 72 185 2.0 3.0 0.00 0.00 0.00 73 1011.3
20260905214025 72 71 3.0 4.0 0.00 0.00 0.00 75 1011.5
20260905213521 72 85 2.0 2.0 0.00 0.00 0.00 76 1011.3
20260905213016 71 85 0.0 1.0 0.00 0.00 0.00 75 1011.4
20260905212511 73 85 0.0 0.0 0.00 0.00 0.00 71 1011.2
20260905212010 74 186 0.0 0.0 0.00 0.00 0.00 69 1011.2
20260905211506 75 272 3.0 3.0 0.00 0.00 0.00 69 1011.0
20260905211002 74 263 2.0 3.0 0.00 0.00 0.00 71 1011.1
20260905210457 73 280 2.0 3.0 0.00 0.00 0.00 72 1011.3
20260905205956 72 294 2.0 3.0 0.00 0.00 0.00 73 1011.0
20260905205451 71 226 1.0 2.0 0.00 0.00 0.00 77 1011.1
20260905204949 70 188 0.0 1.0 0.00 0.00 0.00 79 1011.1
20260905204446 69 187 0.0 0.0 0.00 0.00 0.00 85 1011.2
20260905203945 69 187 0.0 0.0 0.00 0.00 0.00 83 1011.1
20260905203440 69 184 1.0 1.0 0.00 0.00 0.00 81 1011.2
20260905202936 70 184 0.0 1.0 0.00 0.00 0.00 80 1011.2
20260905202431 70 181 0.0 0.0 0.00 0.00 0.00 79 1011.2
20260905201926 70 185 1.0 1.0 0.00 0.00 0.00 81 1011.2
20260905201421 70 257 2.0 2.0 0.00 0.00 0.00 77 1011.2
20260905200921 70 203 2.0 2.0 0.00 0.00 0.00 78 1010.9
20260905200417 70 205 2.0 4.0 0.00 0.00 0.00 78 1011.0
20260905195915 71 167 1.0 1.0 0.00 0.00 0.00 76 1011.1
20260905195411 71 312 0.0 0.0 0.00 0.00 0.00 73 1011.1
20260905194906 73 205 0.0 1.0 0.00 0.00 0.00 74 1011.2
20260905194405 73 182 0.0 1.0 0.00 0.00 0.00 69 1011.0
20260905193900 72 113 0.0 0.0 0.00 0.00 0.00 70 1010.9
20260905193355 73 113 1.0 1.0 0.00 0.00 0.00 67 1010.9
20260905192850 73 111 3.0 3.0 0.00 0.00 0.00 68 1011.0
20260905192346 75 310 3.0 4.0 0.00 0.00 0.00 69 1011.0
20260905191845 74 193 1.0 2.0 0.00 0.00 0.00 66 1011.0
20260905191345 73 115 0.0 1.0 0.00 0.00 0.00 73 1011.3
20260905190843 73 110 3.0 3.0 0.00 0.00 0.00 70 1010.9
20260905190337 73 97 1.0 2.0 0.00 0.00 0.00 70 1011.2
20260905185836 72 125 0.0 1.0 0.00 0.00 0.00 71 1011.3
20260905185331 74 106 0.0 1.0 0.00 0.00 0.00 67 1011.2
20260905184830 73 98 3.0 3.0 0.00 0.00 0.00 66 1011.0
20260905184330 74 289 6.0 7.0 0.00 0.00 0.00 68 1011.2
20260905183828 74 283 3.0 3.0 0.00 0.00 0.00 68 1011.2
20260905183324 73 304 5.0 7.0 0.00 0.00 0.00 70 1011.0
20260905182823 73 255 3.0 4.0 0.00 0.00 0.00 70 1011.1
20260905182317 73 306 4.0 6.0 0.00 0.00 0.00 71 1011.3
20260905181813 73 58 2.0 2.0 0.00 0.00 0.00 69 1011.4
20260905181306 72 189 2.0 2.0 0.00 0.00 0.00 76 1011.2
20260905180801 72 143 1.0 1.0 0.00 0.00 0.00 69 1011.2
20260905180255 72 145 2.0 3.0 0.00 0.00 0.00 69 1011.2
20260905175750 72 150 1.0 1.0 0.00 0.00 0.00 70 1011.2
20260905175245 71 168 1.0 1.0 0.00 0.00 0.00 71 1011.4
20260905174740 72 105 2.0 3.0 0.00 0.00 0.00 71 1011.3
20260905174235 72 82 4.0 4.0 0.00 0.00 0.00 69 1011.1
20260905173732 73 259 3.0 3.0 0.00 0.00 0.00 69 1011.4
20260905173227 71 185 0.0 1.0 0.00 0.00 0.00 73 1011.3
20260905172727 71 189 1.0 2.0 0.00 0.00 0.00 72 1011.5
20260905172221 71 201 0.0 0.0 0.00 0.00 0.00 73 1011.3
20260905171717 71 192 0.0 1.0 0.00 0.00 0.00 72 1011.3
20260905171213 71 120 3.0 4.0 0.00 0.00 0.00 71 1011.2
20260905170710 71 136 1.0 1.0 0.00 0.00 0.00 73 1011.6
20260905170210 71 101 1.0 1.0 0.00 0.00 0.00 73 1011.5
20260905165709 71 75 3.0 4.0 0.00 0.00 0.00 74 1011.5
20260905165205 71 225 2.0 2.0 0.00 0.00 0.00 73 1011.6
20260905164659 73 165 1.0 1.0 0.00 0.00 0.00 69 1011.6
20260905164159 75 139 2.0 3.0 0.00 0.00 0.00 69 1011.4
20260905163655 75 139 4.0 4.0 0.00 0.00 0.00 67 1011.2
20260905163152 73 196 2.0 4.0 0.00 0.00 0.00 73 1011.3
20260905162647 71 147 1.0 2.0 0.00 0.00 0.00 76 1011.3
20260905162147 70 61 3.0 3.0 0.00 0.00 0.00 76 1011.4
20260905161641 70 334 2.0 3.0 0.00 0.00 0.00 77 1011.5
20260905161139 70 343 1.0 1.0 0.00 0.00 0.00 75 1011.8
20260905160639 71 140 0.0 0.0 0.00 0.00 0.00 74 1011.6
20260905160133 73 134 0.0 0.0 0.00 0.00 0.00 72 1011.6
20260905155633 71 134 0.0 0.0 0.00 0.00 0.00 74 1011.8
20260905155131 70 83 2.0 2.0 0.00 0.00 0.00 76 1011.4
20260905154626 70 57 2.0 4.0 0.00 0.00 0.00 74 1011.4
20260905154122 70 145 1.0 2.0 0.00 0.00 0.00 74 1011.5
20260905153617 72 98 5.0 7.0 0.00 0.00 0.00 70 1011.5
20260905153113 73 101 0.0 1.0 0.00 0.00 0.00 75 1011.4
20260905152607 72 130 2.0 2.0 0.00 0.00 0.00 73 1011.7
20260905152102 70 127 1.0 1.0 0.00 0.00 0.00 77 1011.7
20260905151557 70 117 1.0 2.0 0.00 0.00 0.00 76 1011.8
20260905151052 69 250 3.0 3.0 0.00 0.00 0.00 79 1011.8
20260905150548 67 102 0.0 1.0 0.00 0.00 0.00 83 1011.9
20260905150045 68 102 0.0 0.0 0.00 0.00 0.00 81 1011.7
20260905145539 68 156 1.0 1.0 0.00 0.00 0.00 82 1011.7
20260905145038 66 183 1.0 1.0 0.00 0.00 0.00 85 1011.7
20260905144533 68 15 2.0 2.0 0.00 0.00 0.00 85 1011.7
20260905144032 67 172 2.0 3.0 0.00 0.00 0.00 83 1011.7
20260905143532 67 163 0.0 1.0 0.00 0.00 0.00 85 1011.8
20260905143027 66 343 3.0 3.0 0.00 0.00 0.00 86 1011.8
20260905142526 66 116 0.0 0.0 0.00 0.00 0.00 85 1012.0
20260905142021 66 90 0.0 0.0 0.00 0.00 0.00 86 1011.8
20260905141515 65 90 3.0 3.0 0.00 0.00 0.00 87 1011.8
20260905141012 65 121 2.0 3.0 0.00 0.00 0.00 87 1012.0
20260905140507 65 145 1.0 1.0 0.00 0.00 0.00 88 1011.8
20260905140006 65 321 0.0 0.0 0.00 0.00 0.00 89 1011.7
20260905135501 65 94 2.0 4.0 0.00 0.00 0.00 87 1011.8
20260905134956 66 176 1.0 2.0 0.00 0.00 0.00 87 1011.8
20260905134455 66 158 1.0 1.0 0.00 0.00 0.00 87 1011.6
20260905133954 66 344 3.0 7.0 0.00 0.00 0.00 85 1011.7
20260905133444 65 323 0.0 1.0 0.00 0.00 0.00 87 1011.7
20260905132943 66 59 0.0 0.0 0.00 0.00 0.00 86 1011.4
20260905132439 66 177 0.0 0.0 0.00 0.00 0.00 88 1011.5
20260905131933 66 152 0.0 0.0 0.00 0.00 0.00 87 1011.3
20260905131430 65 129 0.0 0.0 0.00 0.00 0.00 88 1011.6
20260905130924 65 156 0.0 0.0 0.00 0.00 0.00 90 1011.8
20260905130423 65 130 0.0 0.0 0.00 0.00 0.00 90 1011.7
20260905125918 64 129 0.0 0.0 0.00 0.00 0.00 92 1011.9
20260905125413 64 129 0.0 0.0 0.00 0.00 0.00 93 1011.9
20260905124908 63 300 0.0 1.0 0.00 0.00 0.00 94 1011.8
20260905124405 62 187 0.0 0.0 0.00 0.00 0.00 96 1011.9
20260905123904 61 199 0.0 0.0 0.00 0.00 0.00 99 1012.0
20260905123401 59 199 0.0 0.0 0.00 0.00 0.00 99 1011.9
20260905122856 58 198 0.0 0.0 0.00 0.00 0.00 99 1011.9
20260905122355 57 198 0.0 0.0 0.00 0.00 0.00 99 1011.9
20260905121851 57 198 0.0 0.0 0.00 0.00 0.00 99 1011.9
20260905121347 57 198 0.0 0.0 0.00 0.00 0.00 99 1011.8
20260905120846 56 198 0.0 0.0 0.00 0.00 0.00 99 1011.7
20260905120340 56 198 0.0 0.0 0.00 0.00 0.00 99 1011.6
20260905115836 55 198 0.0 0.0 0.00 0.00 0.00 99 1011.6
20260905115335 55 198 0.0 0.0 0.00 0.00 0.00 99 1011.7
20260905114834 54 198 0.0 0.0 0.00 0.00 0.00 99 1011.6
20260905114334 54 198 0.0 0.0 0.00 0.00 0.00 99 1011.8
20260905113828 53 198 0.0 0.0 0.00 0.00 0.00 99 1011.5
20260905113324 53 198 0.0 0.0 0.00 0.00 0.00 99 1011.5
20260905112819 53 198 0.0 0.0 0.00 0.00 0.00 99 1011.6
20260905112314 52 198 0.0 0.0 0.00 0.00 0.00 99 1011.8
20260905111809 52 198 0.0 0.0 0.00 0.00 0.00 99 1011.5
20260905111303 52 198 0.0 0.0 0.00 0.00 0.00 99 1011.5
20260905110802 52 198 0.0 0.0 0.00 0.00 0.00 99 1011.3
20260905110256 52 198 0.0 0.0 0.00 0.00 0.00 99 1011.1
20260905105752 52 198 0.0 0.0 0.00 0.00 0.00 99 1011.2
20260905105251 52 198 0.0 0.0 0.00 0.00 0.00 99 1011.0
20260905104746 52 155 0.0 0.0 0.00 0.00 0.00 99 1011.1
20260905104242 52 155 0.0 0.0 0.00 0.00 0.00 99 1011.0
20260905103736 52 155 0.0 0.0 0.00 0.00 0.00 99 1010.6
20260905103232 52 155 0.0 0.0 0.00 0.00 0.00 99 1010.9
20260905102727 52 155 0.0 0.0 0.00 0.00 0.00 99 1010.6
20260905102224 52 155 0.0 0.0 0.00 0.00 0.00 99 1010.9
20260905101723 52 155 0.0 0.0 0.00 0.00 0.00 99 1010.7
20260905101221 52 155 0.0 0.0 0.00 0.00 0.00 99 1010.6